When you browse on this site, cookies collect data to enhance your experience and personalize the content and advertising you see.
Visit our Privacy Policy to learn more. By continuing to use the site, you agree to this use of cookies and data.
  • Em Portugal
  • Lista de países
  • Para 7 dias
  • Temperatura da água
  • Mapas de satélite
  • Mapa do tempo
  • Widgets de tempo
  • user-avatar
    Iniciar Sessão

    Previsão horária em Brčko

    Hoje, 21 Abril, Domingo

    Tempo Temperatura Precipitação Vento Pressão Humidade
    00:00 +10°C° 0 mm 2 m/s 761 mmHg 61%
    01:00 +9°C° 0 mm 2 m/s 761 mmHg 62%
    02:00 +10°C° 0 mm 1 m/s 760 mmHg 63%
    03:00 +9°C° 0 mm 1 m/s 760 mmHg 63%
    04:00 +9°C° 0 mm 1 m/s 760 mmHg 64%
    05:00 +10°C° 0 mm 1 m/s 760 mmHg 63%
    06:00 +11°C° 0 mm 1 m/s 760 mmHg 61%
    07:00 +13°C° 0 mm 1 m/s 759 mmHg 60%
    08:00 +15°C° 0 mm 1 m/s 759 mmHg 53%
    09:00 +18°C° 0 mm 1 m/s 759 mmHg 47%
    10:00 +21°C° 0 mm 1 m/s 759 mmHg 40%
    11:00 +21°C° 0 mm 1 m/s 758 mmHg 38%
    12:00 +21°C° 0 mm 2 m/s 758 mmHg 37%
    13:00 +21°C° 0 mm 2 m/s 757 mmHg 35%
    14:00 +21°C° 0 mm 2 m/s 757 mmHg 36%
    15:00 +21°C° 0 mm 2 m/s 756 mmHg 37%
    16:00 +21°C° 0 mm 2 m/s 756 mmHg 39%
    17:00 +19°C° 0 mm 2 m/s 756 mmHg 45%
    18:00 +17°C° 0 mm 2 m/s 755 mmHg 52%
    19:00 +14°C° 0 mm 1 m/s 755 mmHg 59%
    20:00 +14°C° 0 mm 1 m/s 755 mmHg 61%
    21:00 +13°C° 0 mm 1 m/s 756 mmHg 64%
    22:00 +12°C° 0 mm 1 m/s 756 mmHg 66%
    23:00 +11°C° 0 mm 1 m/s 755 mmHg 66%

    Amanhã, 22 Abril, Segunda-feira

    Tempo Temperatura Precipitação Vento Pressão Humidade
    00:00 +11°C° 0 mm 1 m/s 755 mmHg 67%
    01:00 +11°C° 0 mm 1 m/s 755 mmHg 68%
    02:00 +10°C° 0 mm 1 m/s 755 mmHg 70%
    03:00 +10°C° 0 mm 1 m/s 754 mmHg 72%
    04:00 +9°C° 0 mm 1 m/s 754 mmHg 74%
    05:00 +11°C° 0 mm 1 m/s 754 mmHg 73%
    06:00 +12°C° 0 mm 1 m/s 753 mmHg 71%
    07:00 +14°C° 0 mm 1 m/s 753 mmHg 69%
    08:00 +16°C° 0 mm 1 m/s 753 mmHg 62%
    09:00 +20°C° 0 mm 1 m/s 753 mmHg 55%
    10:00 +21°C° 0 mm 0 m/s 752 mmHg 48%
    11:00 +23°C° 0 mm 1 m/s 752 mmHg 44%
    12:00 +24°C° 0 mm 1 m/s 751 mmHg 41%
    13:00 +24°C° 0 mm 2 m/s 751 mmHg 37%
    14:00 +24°C° 0 mm 2 m/s 750 mmHg 40%
    15:00 +24°C° 0 mm 3 m/s 750 mmHg 43%
    16:00 +23°C° 0 mm 4 m/s 749 mmHg 46%
    17:00 +21°C° 0 mm 3 m/s 749 mmHg 53%
    18:00 +19°C° 0 mm 3 m/s 749 mmHg 60%
    19:00 +17°C° 0 mm 3 m/s 749 mmHg 67%
    20:00 +16°C° 0 mm 3 m/s 749 mmHg 66%
    21:00 +16°C° 0 mm 2 m/s 749 mmHg 65%
    22:00 +15°C° 0 mm 2 m/s 750 mmHg 64%
    23:00 +15°C° 0.1 mm 2 m/s 749 mmHg 66%

    Depois de amanhã, 23 Abril, Terça-feira

    Tempo Temperatura Precipitação Vento Pressão Humidade
    00:00 +13°C° 0.1 mm 3 m/s 749 mmHg 67%
    01:00 +13°C° 0.1 mm 3 m/s 749 mmHg 68%
    02:00 +13°C° 0.3 mm 3 m/s 749 mmHg 74%
    03:00 +12°C° 0.3 mm 4 m/s 749 mmHg 80%
    04:00 +12°C° 0.3 mm 4 m/s 749 mmHg 86%
    05:00 +12°C° 0 mm 5 m/s 749 mmHg 86%
    06:00 +12°C° 0 mm 5 m/s 749 mmHg 85%
    07:00 +13°C° 0 mm 6 m/s 749 mmHg 84%
    08:00 +15°C° 0 mm 6 m/s 749 mmHg 75%
    09:00 +17°C° 0 mm 6 m/s 749 mmHg 65%
    10:00 +21°C° 0 mm 6 m/s 749 mmHg 55%
    11:00 +22°C° 0 mm 6 m/s 749 mmHg 52%
    12:00 +23°C° 0 mm 6 m/s 749 mmHg 50%
    13:00 +23°C° 0 mm 6 m/s 748 mmHg 48%
    14:00 +23°C° 0 mm 6 m/s 748 mmHg 49%
    15:00 +23°C° 0 mm 5 m/s 748 mmHg 50%
    16:00 +23°C° 0 mm 5 m/s 748 mmHg 51%
    17:00 +22°C° 0 mm 4 m/s 748 mmHg 56%
    18:00 +20°C° 0 mm 4 m/s 749 mmHg 61%
    19:00 +18°C° 0 mm 4 m/s 749 mmHg 66%
    20:00 +17°C° 0.1 mm 4 m/s 750 mmHg 70%
    21:00 +17°C° 0.1 mm 4 m/s 750 mmHg 73%
    22:00 +15°C° 0.1 mm 4 m/s 751 mmHg 76%
    23:00 +14°C° 0.3 mm 4 m/s 751 mmHg 79%

    24 Abril, Quarta-feira

    Tempo Temperatura Precipitação Vento Pressão Humidade
    00:00 +14°C° 0.3 mm 4 m/s 751 mmHg 82%
    01:00 +13°C° 0.3 mm 4 m/s 751 mmHg 85%
    02:00 +12°C° 0.1 mm 3 m/s 751 mmHg 86%
    03:00 +12°C° 0.1 mm 3 m/s 752 mmHg 87%
    04:00 +12°C° 0.1 mm 3 m/s 752 mmHg 88%
    05:00 +13°C° 0 mm 3 m/s 752 mmHg 84%
    06:00 +14°C° 0 mm 3 m/s 753 mmHg 81%
    07:00 +17°C° 0 mm 3 m/s 753 mmHg 77%
    08:00 +19°C° 0 mm 3 m/s 753 mmHg 69%
    09:00 +21°C° 0 mm 3 m/s 753 mmHg 60%
    10:00 +24°C° 0 mm 3 m/s 754 mmHg 51%
    11:00 +25°C° 0 mm 3 m/s 753 mmHg 48%
    12:00 +26°C° 0 mm 3 m/s 753 mmHg 44%
    13:00 +27°C° 0 mm 3 m/s 753 mmHg 41%
    14:00 +28°C° 0 mm 3 m/s 753 mmHg 41%
    15:00 +28°C° 0 mm 2 m/s 753 mmHg 42%
    16:00 +28°C° 0 mm 2 m/s 753 mmHg 42%
    17:00 +26°C° 0 mm 2 m/s 754 mmHg 48%
    18:00 +23°C° 0 mm 2 m/s 754 mmHg 55%
    19:00 +20°C° 0 mm 2 m/s 754 mmHg 61%
    20:00 +19°C° 0 mm 2 m/s 755 mmHg 63%
    21:00 +18°C° 0 mm 2 m/s 755 mmHg 65%
    22:00 +17°C° 0 mm 2 m/s 756 mmHg 67%
    23:00 +16°C° 0 mm 2 m/s 756 mmHg 69%

    25 Abril, Quinta-feira

    Tempo Temperatura Precipitação Vento Pressão Humidade
    00:00 +15°C° 0 mm 2 m/s 756 mmHg 71%
    01:00 +15°C° 0 mm 2 m/s 756 mmHg 72%
    02:00 +14°C° 0 mm 2 m/s 756 mmHg 73%
    03:00 +14°C° 0 mm 2 m/s 756 mmHg 74%
    04:00 +14°C° 0 mm 2 m/s 756 mmHg 75%
    05:00 +15°C° 0 mm 2 m/s 756 mmHg 73%
    06:00 +16°C° 0 mm 1 m/s 756 mmHg 71%
    07:00 +18°C° 0 mm 1 m/s 757 mmHg 68%
    08:00 +21°C° 0 mm 1 m/s 756 mmHg 61%
    09:00 +23°C° 0 mm 2 m/s 756 mmHg 55%
    10:00 +25°C° 0 mm 2 m/s 756 mmHg 48%
    11:00 +27°C° 0 mm 2 m/s 756 mmHg 44%
    12:00 +28°C° 0 mm 2 m/s 756 mmHg 40%
    13:00 +29°C° 0 mm 2 m/s 755 mmHg 36%
    14:00 +29°C° 0 mm 3 m/s 755 mmHg 39%
    15:00 +29°C° 0 mm 3 m/s 754 mmHg 43%
    16:00 +28°C° 0 mm 3 m/s 754 mmHg 46%
    17:00 +26°C° 0 mm 3 m/s 754 mmHg 55%
    18:00 +24°C° 0 mm 3 m/s 754 mmHg 64%
    19:00 +21°C° 0 mm 3 m/s 754 mmHg 73%
    20:00 +20°C° 0.1 mm 3 m/s 754 mmHg 74%
    21:00 +19°C° 0.1 mm 2 m/s 755 mmHg 75%
    22:00 +18°C° 0.1 mm 2 m/s 755 mmHg 76%
    23:00 +18°C° 0 mm 2 m/s 755 mmHg 74%

    26 Abril, Sexta-feira

    Tempo Temperatura Precipitação Vento Pressão Humidade
    00:00 +17°C° 0 mm 2 m/s 754 mmHg 73%
    01:00 +17°C° 0 mm 2 m/s 754 mmHg 71%
    02:00 +16°C° 0 mm 2 m/s 754 mmHg 71%
    03:00 +16°C° 0 mm 2 m/s 754 mmHg 71%
    04:00 +15°C° 0 mm 1 m/s 754 mmHg 72%
    05:00 +18°C° 0 mm 1 m/s 754 mmHg 70%
    06:00 +19°C° 0 mm 1 m/s 754 mmHg 68%
    07:00 +20°C° 0 mm 1 m/s 754 mmHg 67%
    08:00 +22°C° 0 mm 1 m/s 754 mmHg 60%
    09:00 +24°C° 0 mm 1 m/s 753 mmHg 52%
    10:00 +26°C° 0 mm 1 m/s 753 mmHg 45%
    11:00 +27°C° 0 mm 1 m/s 753 mmHg 44%
    12:00 +27°C° 0 mm 1 m/s 752 mmHg 42%
    13:00 +28°C° 0 mm 1 m/s 752 mmHg 41%
    14:00 +28°C° 0 mm 2 m/s 751 mmHg 42%
    15:00 +28°C° 0 mm 2 m/s 751 mmHg 44%
    16:00 +28°C° 0 mm 2 m/s 751 mmHg 45%
    17:00 +26°C° 0 mm 2 m/s 751 mmHg 50%
    18:00 +24°C° 0 mm 1 m/s 751 mmHg 55%
    19:00 +23°C° 0 mm 1 m/s 751 mmHg 59%
    20:00 +21°C° 0.5 mm 1 m/s 751 mmHg 67%
    21:00 +18°C° 0.5 mm 2 m/s 752 mmHg 75%
    22:00 +17°C° 0.5 mm 2 m/s 753 mmHg 83%
    23:00 +14°C° 0 mm 3 m/s 753 mmHg 84%
    Mostrar mais